EA7RX-13 Weather Reports


time (UTC)temp
C
wind
direction
speed
KPH
gust
KPH
rain 1hr
cm
rain 24hr
cm
rain mn
cm
humidity
%
barometer
mb
20260503072349 19 0.0 0.0 0.00 0.00 0.00 10 1013.9
20260503071349 18 0.0 0.0 0.00 0.00 0.00 10 1014.0
20260503070349 18 0.0 0.0 0.00 0.00 0.00 10 1013.9
20260503054349 17 0.0 0.0 0.00 0.00 0.00 10 1014.0
20260503053349 17 0.0 0.0 0.00 0.00 0.00 10 1013.9
20260503052349 17 0.0 0.0 0.00 0.00 0.00 10 1013.9
20260503051349 17 0.0 0.0 0.00 0.00 0.00 10 1013.7
20260503050349 17 0.0 0.0 0.00 0.00 0.00 10 1013.5
20260503045349 17 0.0 0.0 0.00 0.00 0.00 10 1013.7
20260503044349 17 0.0 0.0 0.00 0.00 0.00 10 1013.7
20260503043349 17 0.0 0.0 0.00 0.00 0.00 10 1013.8
20260503042349 18 0.0 0.0 0.00 0.00 0.00 10 1013.7
20260503041349 17 0.0 0.0 0.00 0.00 0.00 10 1014.0
20260503040349 17 0.0 0.0 0.00 0.00 0.00 10 1013.9
20260503035349 17 0.0 0.0 0.00 0.00 0.00 10 1013.7
20260503034349 17 0.0 0.0 0.00 0.00 0.00 10 1014.0
20260503033349 17 0.0 0.0 0.00 0.00 0.00 10 1014.2
20260503032349 18 0.0 0.0 0.00 0.00 0.00 10 1014.1
20260503031349 18 0.0 0.0 0.00 0.00 0.00 10 1014.0
20260503030349 18 0.0 0.0 0.00 0.00 0.00 10 1014.2
20260503025349 18 0.0 0.0 0.00 0.00 0.00 10 1014.1
20260503024349 18 0.0 0.0 0.00 0.00 0.00 10 1014.1
20260503023349 18 0.0 0.0 0.00 0.00 0.00 10 1014.0
20260503022349 18 0.0 0.0 0.00 0.00 0.00 10 1013.9
20260503021349 18 0.0 0.0 0.00 0.00 0.00 10 1013.8
20260503020349 18 0.0 0.0 0.00 0.00 0.00 10 1013.9
20260503015349 18 0.0 0.0 0.00 0.00 0.00 10 1013.9
20260503014349 18 0.0 0.0 0.00 0.00 0.00 10 1013.9
20260503013349 18 0.0 0.0 0.00 0.00 0.00 10 1013.9
20260503012349 19 0.0 0.0 0.00 0.00 0.00 10 1013.9
20260503011349 19 0.0 0.0 0.00 0.00 0.00 10 1013.8
20260503010349 19 0.0 0.0 0.00 0.00 0.00 10 1013.7
20260503005349 19 0.0 0.0 0.00 0.00 0.00 10 1013.9
20260503004349 20 0.0 0.0 0.00 0.00 0.00 10 1013.9
20260503003349 19 0.0 0.0 0.00 0.00 0.00 10 1014.0
20260503002349 20 0.0 0.0 0.00 0.00 0.00 10 1014.0
20260503001349 20 0.0 0.0 0.00 0.00 0.00 10 1014.1
20260503000349 20 0.0 0.0 0.00 0.00 0.00 10 1014.1
20260502235349 20 0.0 0.0 0.00 0.00 0.00 10 1014.3
20260502234349 20 0.0 0.0 0.00 0.00 0.00 10 1014.4
20260502233349 20 0.0 0.0 0.00 0.00 0.00 10 1014.3
20260502232349 20 0.0 0.0 0.00 0.00 0.00 10 1014.3
20260502231349 20 0.0 0.0 0.00 0.00 0.00 10 1014.3
20260502230349 20 0.0 0.0 0.00 0.00 0.00 10 1014.4
20260502225349 21 0.0 0.0 0.00 0.00 0.00 10 1014.3
20260502224349 21 0.0 0.0 0.00 0.00 0.00 10 1014.2
20260502223349 21 0.0 0.0 0.00 0.00 0.00 10 1014.2
20260502222349 21 0.0 0.0 0.00 0.00 0.00 10 1014.1
20260502221349 21 0.0 0.0 0.00 0.00 0.00 10 1014.1
20260502220349 21 0.0 0.0 0.00 0.00 0.00 10 1014.4
20260502215349 21 0.0 0.0 0.00 0.00 0.00 10 1014.4
20260502214349 21 0.0 0.0 0.00 0.00 0.00 10 1014.4
20260502213349 21 0.0 0.0 0.00 0.00 0.00 10 1014.4
20260502212349 21 0.0 0.0 0.00 0.00 0.00 10 1014.4
20260502211349 21 0.0 0.0 0.00 0.00 0.00 10 1014.3
20260502210349 21 0.0 0.0 0.00 0.00 0.00 10 1014.1
20260502205349 21 0.0 0.0 0.00 0.00 0.00 10 1014.2
20260502204349 21 0.0 0.0 0.00 0.00 0.00 10 1013.9
20260502203349 21 0.0 0.0 0.00 0.00 0.00 10 1013.9
20260502202349 21 0.0 0.0 0.00 0.00 0.00 10 1013.8
20260502201349 21 0.0 0.0 0.00 0.00 0.00 10 1013.9
20260502200349 21 0.0 0.0 0.00 0.00 0.00 99 1013.7
20260502195349 21 0.0 0.0 0.00 0.00 0.00 10 1013.7
20260502194349 21 0.0 0.0 0.00 0.00 0.00 95 1013.6
20260502193349 22 0.0 0.0 0.00 0.00 0.00 10 1013.4
20260502192349 22 0.0 0.0 0.00 0.00 0.00 97 1013.4
20260502191349 22 0.0 0.0 0.00 0.00 0.00 94 1013.2
20260502190349 22 0.0 0.0 0.00 0.00 0.00 90 1013.0
20260502185349 22 0.0 0.0 0.00 0.00 0.00 87 1013.1
20260502184349 22 0.0 0.0 0.00 0.00 0.00 84 1013.0
20260502183349 22 0.0 0.0 0.00 0.00 0.00 81 1013.0
20260502182349 23 0.0 0.0 0.00 0.00 0.00 84 1012.9
20260502181349 23 0.0 0.0 0.00 0.00 0.00 86 1012.9
20260502180349 23 0.0 0.0 0.00 0.00 0.00 94 1012.8
20260502170349 26 0.0 0.0 0.00 0.00 0.00 66 1012.4
20260502163349 25 0.0 0.0 0.00 0.00 0.00 97 1012.8
20260502162349 25 0.0 0.0 0.00 0.00 0.00 74 1012.7
20260502161349 25 0.0 0.0 0.00 0.00 0.00 77 1012.8
20260502160349 25 0.0 0.0 0.00 0.00 0.00 61 1012.9
20260502151349 26 0.0 0.0 0.00 0.00 0.00 64 1013.2
20260502150349 26 0.0 0.0 0.00 0.00 0.00 66 1013.4
20260502130349 26 0.0 0.0 0.00 0.00 0.00 61 1014.9
20260502123349 26 0.0 0.0 0.00 0.00 0.00 62 1015.1
20260502122349 26 0.0 0.0 0.00 0.00 0.00 64 1015.3
20260502121349 27 0.0 0.0 0.00 0.00 0.00 62 1015.1
20260502120349 25 0.0 0.0 0.00 0.00 0.00 63 1015.8
20260502115349 26 0.0 0.0 0.00 0.00 0.00 58 1015.5
20260502114349 26 0.0 0.0 0.00 0.00 0.00 61 1015.6
20260502113349 26 0.0 0.0 0.00 0.00 0.00 58 1015.9
20260502112349 26 0.0 0.0 0.00 0.00 0.00 61 1015.8
20260502111349 26 0.0 0.0 0.00 0.00 0.00 64 1016.0
20260502110349 26 0.0 0.0 0.00 0.00 0.00 60 1016.0
20260502105349 25 0.0 0.0 0.00 0.00 0.00 64 1016.2
20260502104348 25 0.0 0.0 0.00 0.00 0.00 62 1016.3
20260502103349 23 0.0 0.0 0.00 0.00 0.00 71 1016.5
20260502102348 23 0.0 0.0 0.00 0.00 0.00 69 1016.6
20260502101348 24 0.0 0.0 0.00 0.00 0.00 71 1016.5
20260502100349 23 0.0 0.0 0.00 0.00 0.00 74 1016.7
20260502091348 22 0.0 0.0 0.00 0.00 0.00 87 1016.9
20260502090348 23 0.0 0.0 0.00 0.00 0.00 86 1016.8